SCP
0 0 -0 -0 -0 -0 0 0 -0 0 0 0 0 0 -0 -0 -0 -0 -0 -0 -0 -0 -0 -0 -0 -0 -0 -0 -0 0 -0 -0 -0 -0 -0 -0 -0 -0 -0 -0 -0 -0 -0 -0 -0 -0 -0 -0 -0
0 0 0 0 0 0 0 0 -0 0 -0 -0 -0 0 0 0 -0 -0 -0 0 0 -0 -0 -0 -0 -0 -0 -0 -0 0 -0 0 0 -0 -0 -0 -0 -0 -0 -0 -0 -0 -0 -0 -0 -0 -0 -0 -0
0 0 0 0 0 0 0 -0 -0 -0 -0 0 0 0 -0 0 -0 -0 -0 -0 0 -0 -0 -0 -0 -0 -0 0 0 0 -0 -0 -0 -0 -0 -0 -0 -0 -0 -0 -0 -0 -0 -0 -0 -0 -0 -0 -0
0 0 0 0 0 0 0 0 -0 -0 -0 -0 0 -0 -0 -0 -0 0 -0 0 0 0 -0 -0 -0 -0 0 0 0 -0 -0 -0 -0 -0 -0 -0 -0 -0 -0 -0 -0 -0 -0 -0 -0 -0 -0 -0 -0
0 0 0 0 0 0 0 0 -0 -0 -0 -0 0 -0 -0 -0 0 0 0 0 0 0 -0 -0 0 0 -0 -0 0 -0 -0 -0 -0 -0 -0 -0 -0 -0 -0 -0 -0 -0 -0 -0 -0 -0 -0 -0 -0
0 0 0 0 0 0 0 0 0 0 0 -0 0 -0 -0 -0 0 0 0 0 0 0 -0 0 -0 0 0 0 0 -0 -0 -0 -0 -0 -0 -0 -0 -0 -0 -0 -0 -0 -0 -0 -0 -0 -0 -0 -0
0 0 0 0 0 0 0 0 -0 0 0 0 -0 -0 -0 -0 -0 0 0 0 0 0 0 -0 -0 -0 0 0 0 0 -0 -0 -0 -0 -0 -0 -0 -0 -0 -0 -0 -0 -0 -0 -0 -0 -0 -0 -0
0 0 0 0 0 0 0 0 0 0 0 0 -0 -0 -0 -0 -0 0 0 0 0 -0 0 -0 -0 -0 0 0 0 0 0 0 0 0 0 -0 -0 -0 -0 -0 -0 -0 -0 -0 -0 -0 -0 -0 0
0 0 0 0 0 0 0 0 0 0 0 0 0 0 0 -0 -0 -0 -0 0 -0 0 0 0 -0 -0 -0 -0 0 0 0 0 0 0 -0 -0 -0 -0 -0 -0 -0 -0 -0 -0 -0 -0 0 0 0
0 0 0 0 0 0 0 0 0 0 0 0 0 0 0 -0 -0 -0 -0 -0 0 0 0 -0 0 0 -0 -0 -0 -0 0 -0 0 0 -0 0 -0 -0 -0 -0 -0 -0 -0 -0 -0 -0 0 0 0
0 0 0 0 0 0 0 0 0 0 0 0 0 0 0 -0 -0 -0 -0 -0 -0 0 -0 0 -0 0 0 -0 -0 -0 -0 -0 -0 0 -0 -0 -0 -0 -0 -0 -0 -0 -0 -0 0 0 0 0 0
0 0 0 0 0 0 0 0 0 0 0 0 0 0 0 -0 0 -0 0 0 0 0 -0 -0 0 -0 -0 0 0 -0 -0 -0 0 0 -0 -0 0 -0 -0 -0 -0 -0 0 0 0 0 0 0 0
0 0 0 0 0 0 0 0 0 0 0 0 0 0 0 0 0 0 0 0 0 0 0 0 0 -0 -0 -0 -0 -0 -0 -0 0 -0 -0 -0 -0 -0 -0 -0 -0 0 0 0 0 0 0 0 0
0 0 0 0 0 0 0 0 0 0 0 0 0 0 0 0 0 0 0 0 0 0 0 0 0 -0 0 -0 -0 -0 -0 -0 0 0 0 -0 0 -0 -0 -0 0 0 0 0 0 0 0 0 0
0 0 0 0 0 0 0 -0 -0 0 0 0 0 0 0 0 0 0 0 0 0 0 0 0 0 0 0 0 0 0 0 0 0 0 -0 0 0 0 0 0 0 0 0 0 0 0 0 0 0
0 0 0 0 0 0 0 -0 -0 0 0 0 0 0 0 0 0 0 0 0 0 0 0 0 0 0 0 0 0 0 0 0 0 0 0 0 0 0 0 0 0 0 0 0 0 0 0 0 0
0 0 0 0 0 0 0 -0 -0 0 0 0 0 0 0 0 0 0 0 0 0 0 0 0 0 0 0 0 0 0 0 0 0 0 0 0 0 0 0 0 0 0 0 0 0 0 0 0 0
0 0 0 0 0 0 0 -0 0 0 0 0 0 0 0 0 0 0 0 0 0 0 0 0 0 0 0 0 0 0 0 0 0 0 0 0 0 0 0 0 0 0 0 0 0 0 0 0 0
0 0 0 0 0 0 0 -0 0 0 0 -0 0 0 0 0 0 0 0 0 0 0 0 0 0 0 0 0 0 0 0 0 0 0 0 0 0 0 0 0 0 0 0 0 0 0 0 0 0
0 0 0 0 0 0 0 -0 0 0 0 -0 0 0 -0 0 0 0 0 0 0 0 0 0 0 0 0 0 0 0 0 0 0 0 0 0 0 0 0 0 0 0 0 0 0 0 0 0 0
0 0 0 0 0 0 0 -0 -0 -0 -0 0 0 0 0 0 0 0 0 0 0 0 0 0 0 0 0 0 0 0 0 0 0 0 0 0 0 0 0 0 0 0 0 0 0 0 0 0 0
0 0 0 0 0 0 0 0 0 0 0 0 -0 0 0 0 0 0 0 0 0 0 0 0 0 0 0 0 0 0 0 0 0 0 0 0 0 0 0 0 0 0 0 0 0 0 0 0 0
0 0 0 0 0 0 0 0 -0 0 0 0 0 0 0 0 0 0 0 0 0 0 0 0 0 0 0 0 0 0 0 0 0 0 0 0 0 0 0 0 0 0 0 0 0 0 0 0 0
0 0 0 0 0 0 0 0 -0 0 0 0 0 0 0 0 0 0 0 0 0 0 0 0 0 0 0 0 0 0 0 0 0 0 0 0 0 0 0 0 0 0 0 0 0 0 0 0 0
0 0 0 0 0 0 0 0 0 0 0 0 0 0 0 0 0 0 0 0 0 0 0 0 0 0 0 0 0 0 0 0 0 0 0 0 0 0 0 0 0 0 0 0 0 0 0 0 0
0 0 0 0 0 0 0 0 0 -0 0 0 0 -0 0 0 0 0 0 0 0 0 0 0 0 0 0 0 0 0 0 0 0 0 0 0 0 0 0 0 0 0 0 0 0 0 0 0 0
0 0 0 0 0 0 0 0 -0 0 0 0 0 0 0 0 0 0 0 0 0 0 0 0 0 0 0 0 0 0 0 0 0 0 0 0 0 0 0 0 0 0 0 0 0 0 0 0 0
0 0 0 0 0 0 0 0 0 0 -0 0 0 -0 0 0 0 0 0 0 0 0 0 0 0 0 0 0 0 0 0 0 0 0 0 0 0 0 0 0 0 0 0 0 0 0 0 0 0
0 0 0 0 0 0 0 0 0 -0 -0 -0 0 0 0 0 0 0 0 0 0 0 0 0 0 0 0 0 0 0 0 0 0 0 0 0 0 0 0 0 0 0 0 0 0 0 0 0 0
0 0 0 0 0 0 0 0 0 0 0 0 -0 0 0 0 0 0 0 0 0 0 0 0 0 0 0 0 0 0 0 0 0 0 0 0 0 0 0 0 0 0 0 0 0 0 0 0 0
Wind_Speed_500mb
12 15 16 10 6 4 7 8 2 11 10 4 10 5 4 9 5 7 33 36 36 35 31 26 16 18 19 18 16 15 18 24 21 20 21 20 19 20 19 32 32 32 34 33 27 28 28 29 32
9 12 10 4 5 5 8 7 12 8 10 19 13 7 3 4 5 15 36 41 36 36 30 20 18 17 18 19 18 20 22 27 28 27 27 23 20 24 32 32 35 32 33 32 29 32 33 33 33
7 6 6 2 1 2 4 8 16 19 16 8 7 2 2 2 4 35 21 42 35 34 29 23 19 18 21 23 24 21 24 28 30 30 30 31 31 37 37 34 31 34 31 27 30 34 34 35 34
2 3 3 7 4 6 2 7 15 27 3 4 7 8 4 6 25 18 42 38 34 31 27 25 19 20 23 28 25 23 22 27 32 33 33 32 33 36 40 34 29 26 28 30 29 31 33 34 34
6 4 6 5 5 6 2 4 23 19 9 11 4 8 11 17 17 35 45 35 34 30 29 27 21 20 25 29 28 28 27 26 26 28 26 27 30 32 31 31 27 26 30 27 29 29 30 32 32
4 2 9 13 6 3 3 14 18 10 11 12 6 19 13 17 24 47 42 34 30 30 30 28 24 22 26 25 22 23 27 25 23 24 25 28 30 29 27 26 27 25 29 28 27 27 27 28 30
4 1 4 5 7 4 5 21 15 12 15 9 14 17 8 25 33 45 39 33 30 29 29 29 26 24 24 24 20 19 22 22 22 23 24 28 28 26 24 26 25 24 26 26 24 23 24 26 28
6 4 7 4 6 5 8 17 2 11 8 12 16 7 11 32 41 46 42 32 34 31 28 31 27 25 25 25 23 21 21 22 22 24 26 27 26 24 23 23 22 22 22 22 20 20 22 23 24
13 5 8 11 9 8 8 11 3 7 13 10 15 5 14 40 46 50 48 43 40 35 33 29 29 28 26 27 28 25 23 20 21 23 23 23 23 22 21 19 19 18 18 17 17 18 18 20 21
12 12 15 6 12 12 6 9 9 9 11 11 13 15 25 44 52 55 55 52 47 42 37 34 32 29 26 23 25 23 23 20 19 19 20 19 19 19 18 17 15 14 13 14 14 15 15 17 18
11 12 13 13 13 10 10 7 2 7 10 17 23 27 33 51 54 56 55 51 49 43 38 35 35 32 30 27 23 23 21 20 19 17 15 15 16 15 15 14 12 10 8 9 10 11 13 14 15
9 7 18 19 17 6 7 9 3 11 7 4 17 26 34 55 59 57 56 51 51 49 44 40 36 35 33 29 27 24 21 19 17 15 15 14 13 12 12 11 10 8 7 5 5 7 10 10 11
9 6 9 12 19 10 7 7 0 21 21 24 19 30 39 51 54 55 50 50 51 50 46 44 41 37 35 35 31 28 26 23 19 18 15 14 12 11 10 9 7 7 6 5 4 3 6 6 7
13 14 9 11 8 7 12 8 3 12 21 19 24 33 40 50 53 52 55 56 59 53 49 46 44 41 38 35 33 30 27 25 23 20 19 16 13 11 10 9 8 7 7 5 4 2 2 3 4
11 11 7 13 10 11 11 16 19 28 21 16 23 29 37 44 47 55 56 63 61 57 51 49 47 43 41 38 35 33 31 30 27 24 22 20 18 17 15 13 12 10 9 7 5 4 3 2 2
17 10 11 11 19 6 9 30 24 24 19 22 25 30 35 41 53 50 51 60 61 59 59 52 51 48 45 42 39 36 34 33 32 30 28 26 24 22 21 19 17 16 14 12 10 8 6 6 7
15 18 28 15 10 6 17 18 12 19 25 37 32 33 37 40 48 47 51 52 59 59 59 57 55 54 50 46 43 41 39 37 37 36 34 31 29 30 28 22 20 20 19 16 14 11 8 4 4
26 34 13 21 7 10 12 34 29 24 17 27 28 34 37 43 51 51 53 53 57 63 62 59 55 55 53 51 50 49 47 45 44 41 37 34 31 28 25 25 24 26 23 22 15 11 9 10 12
16 17 26 9 7 8 24 35 38 40 35 45 42 35 38 46 43 48 54 59 60 66 69 67 63 59 58 59 58 56 54 51 48 42 36 34 32 30 30 28 26 23 20 18 15 17 16 19 19
19 19 12 6 6 7 26 42 44 45 45 53 59 57 44 46 41 50 57 60 66 67 71 73 73 67 66 64 61 60 55 56 48 45 43 42 39 39 36 35 31 28 24 21 22 21 23 24 31
24 22 8 6 3 5 16 38 48 36 49 56 61 59 56 54 58 56 58 66 69 72 73 75 74 72 74 70 64 65 61 61 58 55 48 49 40 38 37 36 36 34 34 29 29 30 30 35 36
26 15 15 10 5 17 1 19 28 27 26 33 50 60 70 71 75 65 68 68 74 75 72 72 72 75 76 74 75 74 72 71 64 59 50 44 45 44 38 43 42 42 43 40 37 38 39 40 40
14 26 22 10 8 14 21 15 16 11 21 30 46 52 64 72 78 74 68 72 75 72 73 71 71 74 77 79 80 78 77 72 65 62 59 51 48 46 44 46 49 48 46 44 42 43 42 41 34
37 22 16 9 9 16 27 20 26 24 30 24 24 37 49 69 77 82 74 66 76 74 77 79 77 75 77 79 82 82 80 76 73 71 63 56 54 53 45 40 48 46 46 44 44 43 42 36 29
23 31 7 7 9 16 3 21 38 15 16 16 21 26 28 37 52 69 75 76 67 77 76 79 82 83 83 84 84 83 80 76 75 67 63 60 60 58 50 35 33 39 42 45 46 42 40 35 30
20 21 11 14 12 5 2 22 14 16 25 30 34 47 41 44 38 54 74 79 73 65 76 81 85 87 88 89 89 87 82 83 80 72 67 64 66 60 50 47 44 41 40 40 40 41 36 34 29
12 15 7 7 4 4 13 18 26 25 29 31 28 24 41 46 44 41 50 61 70 76 78 81 88 89 90 89 89 93 90 90 90 80 73 66 67 64 52 50 52 46 42 45 43 39 36 31 33
29 31 11 8 12 15 17 16 27 3 12 17 31 43 34 37 39 40 51 58 61 67 76 82 87 91 90 85 83 88 89 86 85 82 78 73 70 69 66 60 55 48 41 42 46 39 36 36 34
21 21 9 14 10 12 12 18 14 28 25 17 17 15 26 26 28 41 47 55 62 66 68 72 80 86 86 82 80 83 84 81 79 79 76 75 74 75 69 62 57 51 44 45 42 39 39 39 33
32 25 33 14 17 10 8 21 15 13 10 12 21 29 25 47 56 33 39 44 51 57 59 62 70 80 79 80 80 78 76 74 73 74 74 73 73 70 69 65 60 54 48 49 49 45 42 37 32
Wind_Direction_500mb
314 325 337 340 236 248 122 141 111 144 148 112 136 223 311 13 331 40 144 155 149 144 146 147 151 159 151 146 136 141 139 141 151 159 155 137 133 127 108 106 102 96 89 85 79 79 80 81 79
299 318 328 318 257 222 114 140 166 126 117 125 113 137 203 75 82 136 148 154 149 146 154 156 155 152 140 134 129 124 137 132 130 122 127 132 134 120 114 107 98 92 93 90 82 80 79 77 73
274 303 279 318 226 162 107 179 137 127 123 146 123 57 63 93 147 147 161 151 150 150 153 153 152 140 131 139 126 113 115 121 122 116 117 120 116 113 110 105 105 103 100 83 81 78 76 72 67
264 274 52 252 150 117 49 148 144 149 150 129 145 128 65 219 145 156 156 153 150 153 150 148 144 132 126 130 122 118 117 116 117 114 115 114 118 115 114 114 109 101 106 93 83 81 77 70 66
16 264 192 192 172 117 191 162 165 157 125 133 180 132 113 131 152 163 159 153 155 152 152 149 149 132 129 130 126 118 112 113 110 108 113 114 116 117 115 117 109 99 103 93 81 79 72 65 63
53 243 205 201 161 124 167 159 158 169 141 144 159 140 142 175 162 161 160 157 159 158 153 155 149 139 132 133 123 118 114 109 109 114 118 117 113 111 110 108 108 98 94 94 86 81 73 68 67
187 246 167 162 149 169 135 159 181 176 155 159 153 148 159 173 170 166 160 160 160 163 158 156 155 148 137 137 136 122 116 113 112 115 116 115 108 105 105 105 101 100 97 94 88 80 72 67 68
148 127 140 255 173 100 138 164 212 197 142 157 166 180 166 182 174 171 169 164 170 172 169 161 169 162 150 144 140 135 129 123 115 112 110 116 111 107 103 103 108 105 105 100 90 78 71 68 71
137 167 213 206 167 114 152 194 165 178 136 163 192 173 179 179 175 177 178 177 179 178 178 173 176 175 164 157 147 145 140 131 124 120 119 118 111 109 114 114 112 109 104 97 84 72 69 69 73
193 209 208 197 132 128 126 213 167 187 159 189 197 192 172 180 180 183 187 184 185 182 182 177 185 185 175 167 155 151 144 139 138 130 129 129 123 117 116 114 109 105 101 92 81 71 69 69 73
193 209 172 170 118 133 126 117 176 210 210 212 217 191 184 184 188 191 192 194 187 184 184 186 187 189 182 174 167 158 156 154 148 139 133 134 136 129 121 118 119 117 105 96 88 71 65 72 76
177 200 186 156 144 139 120 106 322 246 269 254 237 203 197 193 196 197 198 196 194 189 186 189 192 193 190 185 181 178 173 168 160 153 152 147 141 139 139 135 130 126 132 117 95 74 61 68 75
203 168 174 151 165 150 126 91 27 274 290 276 263 219 207 201 203 203 203 202 201 198 194 192 194 196 197 192 194 190 186 183 180 178 174 167 162 157 152 153 154 147 137 142 129 76 55 66 72
193 175 151 180 183 227 258 239 195 253 300 310 246 227 212 210 209 203 205 205 206 203 202 200 200 199 199 202 200 201 199 200 199 199 193 193 192 189 187 184 189 186 183 185 175 160 58 60 69
138 163 157 186 195 220 194 240 225 246 275 283 249 235 222 215 210 216 215 210 211 207 206 209 208 208 206 207 208 209 210 210 213 213 213 214 212 211 210 213 218 219 220 222 226 233 237 248 280
188 217 208 174 186 219 210 255 232 228 228 253 253 238 235 225 225 220 217 218 214 211 212 210 214 215 217 215 214 216 218 220 221 223 225 225 227 229 225 224 227 231 236 237 241 248 259 266 275
193 213 213 214 193 169 224 267 264 241 238 254 241 236 236 234 233 225 221 221 220 213 214 214 215 218 220 224 224 224 223 225 229 229 231 232 232 232 233 232 235 236 238 240 240 242 241 265 303
192 213 215 214 149 206 230 263 263 253 249 255 257 242 232 237 236 230 227 220 217 216 217 218 220 221 222 224 228 229 226 225 226 228 232 234 233 233 234 239 240 240 243 238 236 230 241 267 288
198 209 218 154 171 234 245 262 268 264 253 257 255 249 247 242 242 233 228 222 219 218 217 217 219 221 222 223 225 230 229 228 228 228 231 232 238 240 237 238 243 244 244 225 231 242 252 260 268
170 187 196 199 155 215 272 268 269 262 252 249 254 250 246 253 243 236 231 225 223 222 221 218 219 221 224 224 226 231 235 236 235 238 235 237 234 234 240 241 242 244 245 241 241 252 259 260 268
206 210 165 252 100 203 291 273 265 254 245 243 243 249 248 242 249 246 237 231 229 224 224 224 222 221 224 226 226 230 231 237 232 232 233 236 235 239 242 246 242 247 250 255 252 254 256 262 267
202 189 163 141 214 264 34 281 274 272 267 250 247 242 242 243 239 235 238 237 234 231 228 228 227 226 227 226 228 230 232 233 233 236 238 239 241 247 240 242 244 247 250 249 248 253 253 260 271
195 169 190 191 263 309 230 272 269 263 271 260 254 246 242 242 239 240 238 237 236 237 235 233 231 230 231 229 230 231 232 235 238 238 237 239 237 243 247 245 243 244 247 250 250 254 262 265 254
139 122 64 60 232 255 248 229 262 255 257 260 263 261 247 242 244 243 243 245 240 237 237 237 235 234 232 231 231 232 233 232 233 236 238 238 239 236 245 245 238 247 250 250 252 256 256 250 249
155 145 127 180 194 245 332 216 248 267 252 258 273 279 261 260 253 249 247 245 245 237 235 237 236 237 236 234 234 233 234 234 237 239 240 235 233 230 239 243 236 238 242 244 246 250 248 243 246
163 167 167 207 207 246 134 236 253 229 259 256 269 259 268 275 270 253 249 251 247 245 239 237 236 239 239 238 236 235 234 236 237 237 239 235 233 233 243 239 239 248 248 250 245 244 236 238 240
142 200 139 92 44 245 216 261 278 234 251 257 258 265 268 267 274 270 257 255 251 246 242 240 239 238 238 241 238 236 235 235 236 235 235 230 229 229 235 236 241 236 244 242 238 231 230 233 240
179 146 165 203 209 239 234 264 251 208 215 253 254 257 264 287 288 289 277 272 266 260 254 247 241 239 239 238 236 235 236 236 237 235 234 230 226 226 227 230 236 242 243 237 234 222 235 241 229
153 180 184 171 217 230 263 249 244 232 239 249 270 275 286 298 314 310 296 286 273 265 260 252 242 237 235 229 232 233 235 234 233 233 232 229 226 224 227 224 228 237 237 230 220 230 229 225 229
201 194 180 189 195 245 294 269 161 213 220 224 252 287 288 303 310 314 319 311 279 261 255 251 241 233 230 229 226 229 232 232 231 232 232 229 225 224 225 221 220 229 227 229 227 233 222 219 211
Wind_Speed_850mb
12 15 16 10 6 4 7 8 2 11 10 4 10 5 4 9 5 7 33 36 36 35 31 26 16 18 19 18 16 15 18 24 21 20 21 20 19 20 19 32 32 32 34 33 27 28 28 29 32
9 12 10 4 5 5 8 7 12 8 10 19 13 7 3 4 5 15 36 41 36 36 30 20 18 17 18 19 18 20 22 27 28 27 27 23 20 24 32 32 35 32 33 32 29 32 33 33 33
7 6 6 2 1 2 4 8 16 19 16 8 7 2 2 2 4 35 21 42 35 34 29 23 19 18 21 23 24 21 24 28 30 30 30 31 31 37 37 34 31 34 31 27 30 34 34 35 34
2 3 3 7 4 6 2 7 15 27 3 4 7 8 4 6 25 18 42 38 34 31 27 25 19 20 23 28 25 23 22 27 32 33 33 32 33 36 40 34 29 26 28 30 29 31 33 34 34
6 4 6 5 5 6 2 4 23 19 9 11 4 8 11 17 17 35 45 35 34 30 29 27 21 20 25 29 28 28 27 26 26 28 26 27 30 32 31 31 27 26 30 27 29 29 30 32 32
4 2 9 13 6 3 3 14 18 10 11 12 6 19 13 17 24 47 42 34 30 30 30 28 24 22 26 25 22 23 27 25 23 24 25 28 30 29 27 26 27 25 29 28 27 27 27 28 30
4 1 4 5 7 4 5 21 15 12 15 9 14 17 8 25 33 45 39 33 30 29 29 29 26 24 24 24 20 19 22 22 22 23 24 28 28 26 24 26 25 24 26 26 24 23 24 26 28
6 4 7 4 6 5 8 17 2 11 8 12 16 7 11 32 41 46 42 32 34 31 28 31 27 25 25 25 23 21 21 22 22 24 26 27 26 24 23 23 22 22 22 22 20 20 22 23 24
13 5 8 11 9 8 8 11 3 7 13 10 15 5 14 40 46 50 48 43 40 35 33 29 29 28 26 27 28 25 23 20 21 23 23 23 23 22 21 19 19 18 18 17 17 18 18 20 21
12 12 15 6 12 12 6 9 9 9 11 11 13 15 25 44 52 55 55 52 47 42 37 34 32 29 26 23 25 23 23 20 19 19 20 19 19 19 18 17 15 14 13 14 14 15 15 17 18
11 12 13 13 13 10 10 7 2 7 10 17 23 27 33 51 54 56 55 51 49 43 38 35 35 32 30 27 23 23 21 20 19 17 15 15 16 15 15 14 12 10 8 9 10 11 13 14 15
9 7 18 19 17 6 7 9 3 11 7 4 17 26 34 55 59 57 56 51 51 49 44 40 36 35 33 29 27 24 21 19 17 15 15 14 13 12 12 11 10 8 7 5 5 7 10 10 11
9 6 9 12 19 10 7 7 0 21 21 24 19 30 39 51 54 55 50 50 51 50 46 44 41 37 35 35 31 28 26 23 19 18 15 14 12 11 10 9 7 7 6 5 4 3 6 6 7
13 14 9 11 8 7 12 8 3 12 21 19 24 33 40 50 53 52 55 56 59 53 49 46 44 41 38 35 33 30 27 25 23 20 19 16 13 11 10 9 8 7 7 5 4 2 2 3 4
11 11 7 13 10 11 11 16 19 28 21 16 23 29 37 44 47 55 56 63 61 57 51 49 47 43 41 38 35 33 31 30 27 24 22 20 18 17 15 13 12 10 9 7 5 4 3 2 2
17 10 11 11 19 6 9 30 24 24 19 22 25 30 35 41 53 50 51 60 61 59 59 52 51 48 45 42 39 36 34 33 32 30 28 26 24 22 21 19 17 16 14 12 10 8 6 6 7
15 18 28 15 10 6 17 18 12 19 25 37 32 33 37 40 48 47 51 52 59 59 59 57 55 54 50 46 43 41 39 37 37 36 34 31 29 30 28 22 20 20 19 16 14 11 8 4 4
26 34 13 21 7 10 12 34 29 24 17 27 28 34 37 43 51 51 53 53 57 63 62 59 55 55 53 51 50 49 47 45 44 41 37 34 31 28 25 25 24 26 23 22 15 11 9 10 12
16 17 26 9 7 8 24 35 38 40 35 45 42 35 38 46 43 48 54 59 60 66 69 67 63 59 58 59 58 56 54 51 48 42 36 34 32 30 30 28 26 23 20 18 15 17 16 19 19
19 19 12 6 6 7 26 42 44 45 45 53 59 57 44 46 41 50 57 60 66 67 71 73 73 67 66 64 61 60 55 56 48 45 43 42 39 39 36 35 31 28 24 21 22 21 23 24 31
24 22 8 6 3 5 16 38 48 36 49 56 61 59 56 54 58 56 58 66 69 72 73 75 74 72 74 70 64 65 61 61 58 55 48 49 40 38 37 36 36 34 34 29 29 30 30 35 36
26 15 15 10 5 17 1 19 28 27 26 33 50 60 70 71 75 65 68 68 74 75 72 72 72 75 76 74 75 74 72 71 64 59 50 44 45 44 38 43 42 42 43 40 37 38 39 40 40
14 26 22 10 8 14 21 15 16 11 21 30 46 52 64 72 78 74 68 72 75 72 73 71 71 74 77 79 80 78 77 72 65 62 59 51 48 46 44 46 49 48 46 44 42 43 42 41 34
37 22 16 9 9 16 27 20 26 24 30 24 24 37 49 69 77 82 74 66 76 74 77 79 77 75 77 79 82 82 80 76 73 71 63 56 54 53 45 40 48 46 46 44 44 43 42 36 29
23 31 7 7 9 16 3 21 38 15 16 16 21 26 28 37 52 69 75 76 67 77 76 79 82 83 83 84 84 83 80 76 75 67 63 60 60 58 50 35 33 39 42 45 46 42 40 35 30
20 21 11 14 12 5 2 22 14 16 25 30 34 47 41 44 38 54 74 79 73 65 76 81 85 87 88 89 89 87 82 83 80 72 67 64 66 60 50 47 44 41 40 40 40 41 36 34 29
12 15 7 7 4 4 13 18 26 25 29 31 28 24 41 46 44 41 50 61 70 76 78 81 88 89 90 89 89 93 90 90 90 80 73 66 67 64 52 50 52 46 42 45 43 39 36 31 33
29 31 11 8 12 15 17 16 27 3 12 17 31 43 34 37 39 40 51 58 61 67 76 82 87 91 90 85 83 88 89 86 85 82 78 73 70 69 66 60 55 48 41 42 46 39 36 36 34
21 21 9 14 10 12 12 18 14 28 25 17 17 15 26 26 28 41 47 55 62 66 68 72 80 86 86 82 80 83 84 81 79 79 76 75 74 75 69 62 57 51 44 45 42 39 39 39 33
32 25 33 14 17 10 8 21 15 13 10 12 21 29 25 47 56 33 39 44 51 57 59 62 70 80 79 80 80 78 76 74 73 74 74 73 73 70 69 65 60 54 48 49 49 45 42 37 32
Wind_Direction_850mb
314 325 337 340 236 248 122 141 111 144 148 112 136 223 311 13 331 40 144 155 149 144 146 147 151 159 151 146 136 141 139 141 151 159 155 137 133 127 108 106 102 96 89 85 79 79 80 81 79
299 318 328 318 257 222 114 140 166 126 117 125 113 137 203 75 82 136 148 154 149 146 154 156 155 152 140 134 129 124 137 132 130 122 127 132 134 120 114 107 98 92 93 90 82 80 79 77 73
274 303 279 318 226 162 107 179 137 127 123 146 123 57 63 93 147 147 161 151 150 150 153 153 152 140 131 139 126 113 115 121 122 116 117 120 116 113 110 105 105 103 100 83 81 78 76 72 67
264 274 52 252 150 117 49 148 144 149 150 129 145 128 65 219 145 156 156 153 150 153 150 148 144 132 126 130 122 118 117 116 117 114 115 114 118 115 114 114 109 101 106 93 83 81 77 70 66
16 264 192 192 172 117 191 162 165 157 125 133 180 132 113 131 152 163 159 153 155 152 152 149 149 132 129 130 126 118 112 113 110 108 113 114 116 117 115 117 109 99 103 93 81 79 72 65 63
53 243 205 201 161 124 167 159 158 169 141 144 159 140 142 175 162 161 160 157 159 158 153 155 149 139 132 133 123 118 114 109 109 114 118 117 113 111 110 108 108 98 94 94 86 81 73 68 67
187 246 167 162 149 169 135 159 181 176 155 159 153 148 159 173 170 166 160 160 160 163 158 156 155 148 137 137 136 122 116 113 112 115 116 115 108 105 105 105 101 100 97 94 88 80 72 67 68
148 127 140 255 173 100 138 164 212 197 142 157 166 180 166 182 174 171 169 164 170 172 169 161 169 162 150 144 140 135 129 123 115 112 110 116 111 107 103 103 108 105 105 100 90 78 71 68 71
137 167 213 206 167 114 152 194 165 178 136 163 192 173 179 179 175 177 178 177 179 178 178 173 176 175 164 157 147 145 140 131 124 120 119 118 111 109 114 114 112 109 104 97 84 72 69 69 73
193 209 208 197 132 128 126 213 167 187 159 189 197 192 172 180 180 183 187 184 185 182 182 177 185 185 175 167 155 151 144 139 138 130 129 129 123 117 116 114 109 105 101 92 81 71 69 69 73
193 209 172 170 118 133 126 117 176 210 210 212 217 191 184 184 188 191 192 194 187 184 184 186 187 189 182 174 167 158 156 154 148 139 133 134 136 129 121 118 119 117 105 96 88 71 65 72 76
177 200 186 156 144 139 120 106 322 246 269 254 237 203 197 193 196 197 198 196 194 189 186 189 192 193 190 185 181 178 173 168 160 153 152 147 141 139 139 135 130 126 132 117 95 74 61 68 75
203 168 174 151 165 150 126 91 27 274 290 276 263 219 207 201 203 203 203 202 201 198 194 192 194 196 197 192 194 190 186 183 180 178 174 167 162 157 152 153 154 147 137 142 129 76 55 66 72
193 175 151 180 183 227 258 239 195 253 300 310 246 227 212 210 209 203 205 205 206 203 202 200 200 199 199 202 200 201 199 200 199 199 193 193 192 189 187 184 189 186 183 185 175 160 58 60 69
138 163 157 186 195 220 194 240 225 246 275 283 249 235 222 215 210 216 215 210 211 207 206 209 208 208 206 207 208 209 210 210 213 213 213 214 212 211 210 213 218 219 220 222 226 233 237 248 280
188 217 208 174 186 219 210 255 232 228 228 253 253 238 235 225 225 220 217 218 214 211 212 210 214 215 217 215 214 216 218 220 221 223 225 225 227 229 225 224 227 231 236 237 241 248 259 266 275
193 213 213 214 193 169 224 267 264 241 238 254 241 236 236 234 233 225 221 221 220 213 214 214 215 218 220 224 224 224 223 225 229 229 231 232 232 232 233 232 235 236 238 240 240 242 241 265 303
192 213 215 214 149 206 230 263 263 253 249 255 257 242 232 237 236 230 227 220 217 216 217 218 220 221 222 224 228 229 226 225 226 228 232 234 233 233 234 239 240 240 243 238 236 230 241 267 288
198 209 218 154 171 234 245 262 268 264 253 257 255 249 247 242 242 233 228 222 219 218 217 217 219 221 222 223 225 230 229 228 228 228 231 232 238 240 237 238 243 244 244 225 231 242 252 260 268
170 187 196 199 155 215 272 268 269 262 252 249 254 250 246 253 243 236 231 225 223 222 221 218 219 221 224 224 226 231 235 236 235 238 235 237 234 234 240 241 242 244 245 241 241 252 259 260 268
206 210 165 252 100 203 291 273 265 254 245 243 243 249 248 242 249 246 237 231 229 224 224 224 222 221 224 226 226 230 231 237 232 232 233 236 235 239 242 246 242 247 250 255 252 254 256 262 267
202 189 163 141 214 264 34 281 274 272 267 250 247 242 242 243 239 235 238 237 234 231 228 228 227 226 227 226 228 230 232 233 233 236 238 239 241 247 240 242 244 247 250 249 248 253 253 260 271
195 169 190 191 263 309 230 272 269 263 271 260 254 246 242 242 239 240 238 237 236 237 235 233 231 230 231 229 230 231 232 235 238 238 237 239 237 243 247 245 243 244 247 250 250 254 262 265 254
139 122 64 60 232 255 248 229 262 255 257 260 263 261 247 242 244 243 243 245 240 237 237 237 235 234 232 231 231 232 233 232 233 236 238 238 239 236 245 245 238 247 250 250 252 256 256 250 249
155 145 127 180 194 245 332 216 248 267 252 258 273 279 261 260 253 249 247 245 245 237 235 237 236 237 236 234 234 233 234 234 237 239 240 235 233 230 239 243 236 238 242 244 246 250 248 243 246
163 167 167 207 207 246 134 236 253 229 259 256 269 259 268 275 270 253 249 251 247 245 239 237 236 239 239 238 236 235 234 236 237 237 239 235 233 233 243 239 239 248 248 250 245 244 236 238 240
142 200 139 92 44 245 216 261 278 234 251 257 258 265 268 267 274 270 257 255 251 246 242 240 239 238 238 241 238 236 235 235 236 235 235 230 229 229 235 236 241 236 244 242 238 231 230 233 240
179 146 165 203 209 239 234 264 251 208 215 253 254 257 264 287 288 289 277 272 266 260 254 247 241 239 239 238 236 235 236 236 237 235 234 230 226 226 227 230 236 242 243 237 234 222 235 241 229
153 180 184 171 217 230 263 249 244 232 239 249 270 275 286 298 314 310 296 286 273 265 260 252 242 237 235 229 232 233 235 234 233 233 232 229 226 224 227 224 228 237 237 230 220 230 229 225 229
201 194 180 189 195 245 294 269 161 213 220 224 252 287 288 303 310 314 319 311 279 261 255 251 241 233 230 229 226 229 232 232 231 232 232 229 225 224 225 221 220 229 227 229 227 233 222 219 211